SL-14 DEB, 47089

Orbit data source: Space-Track

SL-14 DEB, 47089 is space debris in LEO originally from a launch on Thu, 15 Aug 1991 UTC launched from the Plesetsk Missile And Space Complex (PKMTR). Debris objects in space refer to the collection of defunct objects orbiting the Earth. Examples of debris include non-operational satellites, rocket bodies, and fragments generated from explosions, collisions, or faulty payload assembly.

Loading next visibility...
Identifier
47089, 1991-056DP
Orbit
LEO
Country
Flag of CISCIS
Related business
Manufacturer
Unknown
Mission
Spacecraft
Bus & Motor
Unknown
Mass
Unknown
Launch date (UTC)
1991-08-15 (35 years ago)
Launch vehicle
Unknown
Launch site
Plesetsk Missile And Space Complex (PKMTR)
Object type
Payload
Rocket body
Debris
Shape & HBR
Unknown shape, 0.1 m
Radar Cross Section
Small (<0.1 m²)

Expand to show TLE details & history
Last TLE update: 1 day ago

TLE from 1 day ago
0 SL-14 DEB
1 47089U 91056DP  26174.48805702  .00000046  00000-0  56658-4 0  9997
2 47089  82.6011  82.0602 0185799 219.4787 139.2690 13.38394620275220
Epoch: 2026-06-23T11:42Z
TLE epoch observation values (Epoch: 2026-06-23T11:42:48.126Z)
Latitude
-0.00003°
Longitude
-5.29923°
Altitude
1,224.706 km
Speed
7.19 km/s
True Right ascension
05h 28m 14s
True Declination
0° 00' 00"
Sunlit
Object was in daylight at epoch
Visualization orbit readout
Latitude
Unknown
Longitude
Unknown
Altitude
Unknown
Speed
Unknown
Apparent Right ascension
Unknown
Apparent Declination
Unknown
Sunlit
N/A
Visualization observer readout
Local Sidereal Time
22:23:56
Azimuth
Unknown
Elevation
Unknown
Doppler factor
Unknown
Orbital elements
Apogee altitude
1,251.652 km
Perigee altitude
973.302 km
Semi-major axis
7,490.614 km
Eccentricity
0.01858
Inclination
82.6011°
RAAN
82.0602°
Arg. of periapsis
219.4787°
True anomaly
140.63408°
Mean anomaly
139.269°
Eccentric anomaly
139.95393°
Mean motion
3.34786 °/min
Orbital period
107.53 mins
BSTAR
0.000056658
Loading maneuver chart data...
Computing Atmospheric mass density...
Loading historical data...
Loading historical data...
Loading historical data...
Loading historical data...
Loading historical data...
Loading historical data...
Loading historical data...

Documentation

Showing up to 5 results
|